{"data":{"norad_id":61921,"epoch":"2026-05-25T04:30:56.032128Z","epoch_age_seconds":66261,"freshness":"FRESH","line1":"1 61921U 24207K   26145.18814852  .00012162  00000+0  45071-3 0  9990","line2":"2 61921  43.0015 209.5343 0002536 273.7948  86.2614 15.27583551 86425","mean_motion":15.27583551,"eccentricity":0.0002536,"inclination_deg":43.0015,"raan_deg":209.5343,"arg_perigee_deg":273.7948,"mean_anomaly_deg":86.2614,"bstar":0.00045071,"rev_number":8642,"period_min":94.266529582446,"perigee_km":481.29846899135,"apogee_km":484.77845718622,"semimajor_km":6861.1754630888,"source":"CELESTRAK","updated_at":"2026-05-25T13:38:19.482185Z"}}